Regional Weather Roundup
Issued by NWS

Home | Current Version | Previous Version | Graphics & Text | Print | Product List | Glossary On
Versions: 1 2 3 4 5 6 7 8 9 10 11 12 13 14 15 16 17 18 19 20 21 22 23 24 25 26 27
000
ASUS45 KBOU 281307
RWRCO

WEATHER ROUNDUP FOR COLORADO
NATIONAL WEATHER SERVICE DENVER/BOULDER CO
700 AM MDT SUN MAY 28 2017

NOTE: "FAIR" INDICATES FEW OR NO CLOUDS BELOW 12000 FEET WITH NO
SIGNIFICANT WEATHER AND/OR OBSTRUCTIONS TO VISIBILITY.

COZ001>005-013-030-031-281400-
...NORTHWEST COLORADO...

CITY           SKY/WX    TMP DP  RH WIND       PRES   REMARKS
CRAIG          FAIR      35  32  88 SW3       30.36R
HAYDEN         FAIR      37  28  70 SE12      30.36R
MEEKER         FAIR      35  30  82 CALM      30.37R
RABBIT EARS PA NOT AVBL
STEAMBOAT SPGS NOT AVBL
WALDEN         NOT AVBL
$$

COZ006>008-011-281400-
...WEST CENTRAL VALLEYS...

CITY           SKY/WX    TMP DP  RH WIND       PRES   REMARKS
GRAND JUNCTION FAIR      50  32  50 SE7       30.29R
MONTROSE       FAIR      43  30  60 SE9       30.34R
EAGLE          SUNNY     34  32  93 CALM      30.43R
RIFLE          FAIR      40  29  64 SE3       30.35R
DELTA          FAIR      47  29  50 CALM      30.32R
NUCLA          FAIR      45  27  49 E5        30.34R
$$

COZ017>023-064>068-281400-
...SOUTHWEST COLORADO...

CITY           SKY/WX    TMP DP  RH WIND       PRES   REMARKS
DURANGO        FAIR      37  23  56 N3        30.29R
CORTEZ         FAIR      39  31  72 E3        30.28R
PAGOSA SPRINGS FAIR      47  15  27 N7        30.33R
TELLURIDE      FAIR      34  21  59 CALM      30.40R
WOLF CREEK PAS NOT AVBL
$$

COZ009-010-012-014-032>034-037-058>063-281400-
...CENTRAL COLORADO...

CITY           SKY/WX    TMP DP  RH WIND       PRES   REMARKS
ASPEN          FAIR      34  27  75 S5        30.38R WCI  30
BUENA VISTA    FAIR      35  26  68 CALM      30.40S
COPPER MTN     NOT AVBL
BERTHOUD PASS  NOT AVBL
COTTONWOOD PAS NOT AVBL
GUNNISON       FAIR      31  25  78 CALM      30.42R
KREMMLING      NOT AVBL
LEADVILLE      FAIR      25  21  85 CALM      30.43R
SALIDA         FAIR      37  28  70 CALM      30.48R
SUNLIGHT       NOT AVBL
WILKERSON PASS NOT AVBL
$$

COZ069>075-281400-
...SAN LUIS VALLEY/SANGRE DE CRISTO MOUNTAINS...

CITY           SKY/WX    TMP DP  RH WIND       PRES   REMARKS
ALAMOSA        FAIR      36  29  75 CALM      30.36R
DEL NORTE      NOT AVBL
LA VETA PASS   NOT AVBL
SAGUACHE       NOT AVBL
$$

COZ035-036-038>040-281400-
...NORTHERN COLORADO FRONT RANGE...

CITY           SKY/WX    TMP DP  RH WIND       PRES   REMARKS
DENVER INTL AP FAIR      46  36  68 SW12      30.27R
DMNS CITY PARK   N/A     48  35  61 E7        30.28R
AURORA         SUNNY     45  37  72 SW9       30.29R
FRONT RANGE AP SUNNY     48  37  66 SW10      30.28
ERIE MUNI ARPT NOT AVBL
BOULDER MUN AP NOT AVBL
CENTENNIAL     FAIR      47  34  60 SW10      30.29R
BROOMFIELD     SUNNY     46  36  66 SW6       30.28R
FORT COLLINS   FAIR      49  40  71 CALM      30.25R
LONGMONT       NOT AVBL
$$

COZ041-046-047-076>085-087-088-281400-
...PIKES PEAK/PALMER DIVIDE AND SOUTHERN FOOTHILLS...

CITY           SKY/WX    TMP DP  RH WIND       PRES   REMARKS
COLO. SPRINGS  FAIR      49  34  56 N5        30.32R
A. F. ACADEMY  FAIR      42  35  74 NE5       30.32R
SCHRIEVER AFB  FAIR      48  31  52 NW17      30.32R
CHEYENNE MTN   FAIR      50  23  33 N8G18     30.27R
ELLICOTT       FAIR     N/A N/A N/A N5        30.30R
FALCON         FAIR      47  30  51 NW8       30.34R
FORT CARSON    FAIR      45  35  68 NW6       30.30R
LIMON          FAIR      45  40  82 NW10      30.27R
MONUMENT HILL  NOT AVBL
CANON CITY     NOT AVBL
WALSENBURG     FAIR      48  41  76 W12       30.32R
TRINIDAD       FAIR      45  39  79 W8        30.30R
$$

COZ042>045-048>051-090-091-281400-
...NORTHEAST COLORADO...

CITY           SKY/WX    TMP DP  RH WIND       PRES   REMARKS
GREELEY ARPT   FAIR      45  41  86 SW3       30.25R
AKRON          FAIR      46  40  79 W15       30.21R
BURLINGTON     FAIR      51  44  77 W14       30.19R
WRAY           FAIR      52  45  76 W9        30.17R
YUMA           NOT AVBL
STERLING       NOT AVBL
HOLYOKE        NOT AVBL
FORT MORGAN    FAIR      44  39  85 W8        30.23R
$$

COZ086-089-092>099-281400-
...SOUTHEAST COLORADO...

CITY           SKY/WX    TMP DP  RH WIND       PRES   REMARKS
PUEBLO         FAIR      48  42  80 W8        30.28R
LA JUNTA       FAIR      50  45  83 W14       30.24R
LAMAR          FAIR      51  45  79 W9        30.20R
SPRINGFIELD      N/A     51  46  83 NW15      30.23R
$$




USA.gov is the U.S. government's official web portal to all federal, state and local government web resources and services.